User: anonymous   Login
Location: Dentlein
(49.1477°N, 10.4231°E)
Time: 13:30:16
(UTC+00:00)
Language:

H-2A R/B - Orbit

View from above orbital plane
View from above orbital plane
View from above satellite
View from above satellite

Ground track
Ground track

The orbit data is extracted from the following two-line orbital elements,

1 38341U 12025E   24195.82543511  .00004139  00000-0  43790-3 0  9992
2 38341  98.4213 109.0427 0051650 120.8634 239.7676 14.88812972658157
Epoch (UTC): 13 July 2024 19:48:37
Eccentricity: 0.0051650
inclination: 98.4213°
perigee height: 565 km
apogee height: 637 km
right ascension of ascending node: 109.0427°
argument of perigee: 120.8634°
revolutions per day: 14.88812972
mean anomaly at epoch: 239.7676°
orbit number at epoch: 65815

The dashed part of the orbit path shows where the satellite is in the earth's shadow,  

DLR